{"data":{"norad_id":63266,"intl_designator":"2025-053B","name":"STARLINK-11659 [DTC]","alt_names":[],"object_type":"PAYLOAD","status":"ACTIVE","operator":null,"country":"US","launch_date":"2025-03-15","launch_site_code":"AFETR","launch_vehicle":null,"mission":null,"orbit_class":"UNKNOWN","rcs_meters":null,"size_class":null,"mass_kg":null,"dimensions":null,"purposes":["comms"],"wikipedia_slug":null,"has_3d_model":false,"image_url":null,"decayed_at":null,"tle_current":{"epoch":"2026-05-25T00:11:35.730816Z","epoch_age_seconds":68209,"freshness":"FRESH","line1":"1 63266U 25053B   26145.00805244  .00181415  00000+0  13850-2 0  9997","line2":"2 63266  43.0023  12.0935 0002001 272.6697  87.3942 15.70868367 69671","mean_motion":15.70868367,"eccentricity":0.0002001,"inclination_deg":43.0023,"raan_deg":12.0935,"arg_perigee_deg":272.6697,"mean_anomaly_deg":87.3942,"bstar":0.001385,"rev_number":6967,"period_min":91.669043075205,"perigee_km":355.06640094168,"apogee_km":357.76156824571,"semimajor_km":6734.5509845937,"source":"CELESTRAK","updated_at":"2026-05-25T13:38:19.923908Z"}}}